[[{"header":{"parameterUnit":"m.s-1","parameterCategory":2,"la1":30.2991,"la2":30.254,"lo1":-89.0895,"lo2":-89.0444,"dy":0.0017,"dx":0.0017,"nx":28,"ny":28,"refTime":"2025-09-04T09:00:00:Z","depth":"0","parameterNumber":2,"parameterNumberName":"U-component_of_CURRENTS"},"data":[0,0,0,0,0,0,0,0,0,0,0,0,0,0,0,0,0,0,0,0,0,0,0,0,0,0,0,0,0,0,0,0,0,0,0,0,0,0,0,0,0,0,0,0,0,0,0,0,0,0,0,0,0,0,0,0,0,0,-0.3032,-0.303,0,-0.2945,-0.2945,-0.2944,-0.2911,-0.291,-0.291,-0.291,-0.2744,-0.2741,-0.2737,0,0,0,0,0,0,0,0,0,0,0,0,0,-0.3172,-0.317,-0.3032,-0.303,-0.3028,-0.2945,-0.2945,-0.2944,-0.2911,-0.291,-0.291,-0.291,-0.2746,-0.2741,-0.2736,0,0,0,0,0,0,0,0,0,0,0,0,0,-0.3107,-0.317,-0.3032,-0.2997,-0.2992,-0.2945,-0.2944,-0.2944,-0.2911,-0.291,-0.291,-0.2909,-0.2747,-0.2741,-0.2735,-0.2709,0,0,-0.2717,-0.2714,0,0,0,0,0,0,0,0,-0.3111,-0.3103,-0.3004,-0.2999,-0.2994,-0.2932,-0.2933,-0.2859,-0.2911,-0.2949,-0.291,-0.2909,-0.2796,-0.2786,-0.2782,-0.2702,-0.2695,-0.2716,-0.2713,-0.271,-0.2708,0,0,0,0,0,0,0,-0.3116,-0.3107,-0.3005,-0.3002,-0.2996,-0.2986,-0.2977,-0.292,-0.2881,-0.2946,-0.2942,-0.2921,-0.2793,-0.2788,-0.2777,-0.2692,-0.2717,-0.2711,-0.2707,-0.2705,-0.245,-0.2447,0,0,0,0,0,0,-0.3113,-0.3111,-0.3007,-0.3001,-0.3044,-0.2983,-0.2973,-0.2958,-0.2883,-0.2869,-0.2922,-0.292,-0.2798,-0.2784,-0.2771,-0.266,-0.271,-0.2704,-0.2701,-0.2454,-0.245,-0.2446,0,0,0,0,0,0,-0.3116,-0.3104,-0.3011,-0.3048,-0.3035,-0.2981,-0.2964,-0.2957,-0.2938,-0.2864,-0.285,-0.2909,-0.2797,-0.2779,-0.2681,-0.2656,-0.2702,-0.2696,-0.2457,-0.2452,-0.2448,-0.2485,0,0,0,0,0,0,-0.3121,-0.3107,-0.3102,-0.3048,-0.3032,-0.2954,-0.2964,-0.2955,-0.2924,-0.292,-0.2848,-0.2833,-0.2796,-0.269,-0.2675,-0.2648,-0.2691,-0.2461,-0.2455,-0.245,-0.2488,-0.2482,-0.2478,0,0,0,0,0,-0.3126,-0.3104,-0.3103,-0.309,-0.3025,-0.2951,-0.2942,-0.2907,-0.2924,-0.2896,-0.2842,-0.2835,-0.2642,-0.2683,-0.2666,-0.2637,-0.2464,-0.2457,-0.245,-0.249,-0.2484,-0.2478,0,0,0,0,0,0,-0.3162,-0.3096,-0.3094,-0.3055,-0.2999,-0.2942,-0.2917,-0.2906,-0.285,-0.285,-0.28,-0.2778,-0.2681,-0.2641,-0.2688,-0.2538,-0.255,-0.2539,-0.2586,-0.2579,-0.2574,-0.2591,-0.2686,0,0,0,0,0,-0.317,-0.3139,-0.3073,-0.3044,-0.3014,-0.2974,-0.2947,-0.2922,-0.2862,-0.284,-0.2789,-0.272,-0.2642,-0.2598,-0.2524,-0.2449,-0.2427,-0.2412,-0.2407,-0.2403,-0.2399,-0.2354,-0.2347,-0.2423,-0.2423,-0.2423,0,0,-0.3187,-0.3138,-0.3129,-0.305,-0.3014,-0.2963,-0.2957,-0.2903,-0.2867,-0.2827,-0.2762,-0.2701,-0.2614,-0.2524,-0.2477,-0.2488,-0.2363,-0.2394,-0.2393,-0.239,-0.2346,-0.234,-0.2334,-0.2419,-0.2419,-0.242,0,0,-0.3172,-0.315,-0.3111,-0.3063,-0.2988,-0.2954,-0.2936,-0.2871,-0.2845,-0.277,-0.2728,-0.2649,-0.2541,-0.2475,-0.2428,-0.2345,-0.2337,-0.2316,-0.2311,-0.2267,-0.2262,-0.2258,-0.2215,-0.2206,-0.2317,-0.2317,-0.2317,0,-0.3174,-0.3116,-0.3088,-0.3029,-0.2976,-0.2949,-0.2884,-0.2863,-0.2778,-0.2736,-0.2742,-0.2576,-0.2519,-0.2403,-0.2376,-0.234,-0.2314,-0.2356,-0.2268,-0.2262,-0.2257,-0.2214,-0.2204,-0.2318,-0.2318,-0.2318,-0.2318,0,-0.311,-0.3078,-0.3043,-0.2964,-0.2921,-0.2848,-0.2806,-0.277,-0.2745,-0.2708,-0.2597,-0.2526,-0.2423,-0.2394,-0.2365,-0.2279,-0.2273,-0.2274,-0.2304,-0.2253,-0.2209,-0.2198,-0.2319,-0.2319,-0.2319,-0.2318,0,0,-0.3027,-0.2997,-0.2979,-0.2933,-0.2864,-0.28,-0.2768,-0.2676,-0.2637,-0.2587,-0.2515,-0.2407,-0.2387,-0.233,-0.2286,-0.2257,-0.2207,-0.2257,-0.2254,-0.225,-0.211,-0.2025,-0.2005,-0.2207,-0.2205,-0.2204,-0.2095,0,-0.2947,-0.2844,-0.2854,-0.2757,-0.2683,-0.2675,-0.2638,-0.2585,-0.2549,-0.2489,-0.2438,-0.2351,-0.2359,-0.2309,-0.2283,-0.2224,-0.2179,-0.2236,-0.2127,-0.2124,-0.2085,-0.1989,-0.1895,-0.1783,-0.2085,-0.2083,-0.2082,0,-0.2839,-0.2771,-0.2675,-0.2617,-0.2584,-0.2541,-0.2446,-0.2415,-0.2375,-0.2357,-0.2309,-0.2286,-0.222,-0.2246,-0.2151,-0.2191,-0.2144,-0.2115,-0.211,-0.2011,-0.2017,-0.1877,-0.1752,-0.1749,-0.2065,-0.2066,-0.2067,0,-0.2719,-0.2636,-0.2547,-0.2518,-0.2464,-0.2416,-0.2377,-0.2344,-0.2308,-0.227,-0.2251,-0.2195,-0.2152,-0.2115,-0.2074,-0.2108,-0.1981,-0.2016,-0.1886,-0.1881,-0.1764,-0.175,-0.1651,-0.1927,-0.1927,-0.1927,-0.1927,0,-0.2589,-0.2512,-0.248,-0.2416,-0.2283,-0.2305,-0.2203,-0.218,-0.2175,-0.2129,-0.2164,-0.2117,-0.2121,-0.2066,-0.2042,-0.1921,-0.1947,-0.1854,-0.1832,-0.1769,-0.1758,-0.1722,-0.1756,-0.1923,-0.1924,-0.1925,-0.1925,0,-0.2458,-0.2472,-0.2328,-0.2246,-0.2227,-0.211,-0.208,-0.2033,-0.2062,-0.2016,-0.2007,-0.2029,-0.1964,-0.1949,-0.1871,-0.1845,-0.1716,-0.1702,-0.1628,-0.1598,-0.1484,-0.1524,-0.1391,-0.1355,-0.1544,-0.1541,-0.1538,0,-0.2363,-0.2282,-0.2162,-0.2098,-0.2049,-0.1944,-0.1907,-0.1935,-0.1922,-0.195,-0.1919,-0.1875,-0.1807,-0.1676,-0.1613,-0.1516,-0.156,-0.1388,-0.1423,-0.1428,-0.1458,-0.151,-0.1496,-0.1286,-0.1282,-0.1278,-0.1275,0,-0.2098,-0.2076,-0.1976,-0.1871,-0.18,-0.1731,-0.1692,-0.1678,-0.1751,-0.1732,-0.1698,-0.165,-0.1557,-0.1413,-0.1316,-0.1266,-0.1357,-0.1309,-0.1325,-0.1237,-0.1274,-0.1245,-0.1427,-0.1243,-0.1247,-0.1249,-0.1251,-0.1252,-0.1868,-0.1752,-0.168,-0.1581,-0.154,-0.1514,-0.1423,-0.1458,-0.1415,-0.1366,-0.1424,-0.1258,-0.1244,-0.1079,-0.1052,-0.0987,-0.1078,-0.0979,-0.1024,-0.1075,-0.1038,-0.1142,-0.0932,-0.0933,-0.0934,-0.0935,-0.0936,0,-0.1554,-0.151,-0.1407,-0.1314,-0.1256,-0.1307,-0.1282,-0.1205,-0.112,-0.1074,-0.0985,-0.0788,-0.0731,-0.0753,-0.0758,-0.0732,-0.0758,-0.0744,-0.0813,-0.081,-0.0888,-0.0874,-0.0627,-0.0627,-0.0627,-0.0627,-0.0627,-0.0627,-0.1395,-0.1233,-0.1234,-0.1069,-0.104,-0.0915,-0.0876,-0.0795,-0.072,-0.0501,-0.0323,-0.0249,-0.0368,-0.0576,-0.0649,-0.0639,-0.0676,-0.0635,-0.07,-0.0787,-0.0815,-0.0841,-0.0835,-0.0584,-0.0584,-0.0583,-0.0583,-0.0583]},{"header":{"parameterUnit":"m.s-1","parameterCategory":2,"la1":30.2991,"la2":30.254,"lo1":-89.0895,"lo2":-89.0444,"dy":0.0017,"dx":0.0017,"nx":28,"ny":28,"refTime":"2025-09-04T09:00:00:Z","depth":"0","parameterNumber":3,"parameterNumberName":"V-component_of_CURRENTS"},"data":[0,0,0,0,0,0,0,0,0,0,0,0,0,0,0,0,0,0,0,0,0,0,0,0,0,0,0,0,0,0,0,0,0,0,0,0,0,0,0,0,0,0,0,0,0,0,0,0,0,0,0,0,0,0,0,0,0,0,-0.0607,-0.0605,0,-0.0487,-0.0485,-0.0484,-0.0392,-0.0391,-0.039,-0.0389,-0.0237,-0.0234,-0.0231,0,0,0,0,0,0,0,0,0,0,0,0,0,-0.0795,-0.0792,-0.0607,-0.0605,-0.0604,-0.0487,-0.0485,-0.0484,-0.0392,-0.0391,-0.039,-0.0388,-0.0238,-0.0234,-0.0231,0,0,0,0,0,0,0,0,0,0,0,0,0,-0.07,-0.0791,-0.0607,-0.0542,-0.0535,-0.0487,-0.0485,-0.0484,-0.0393,-0.0391,-0.0389,-0.0388,-0.0239,-0.0235,-0.023,-0.0234,0,0,-0.0216,-0.0214,0,0,0,0,0,0,0,0,-0.0705,-0.0693,-0.0553,-0.0546,-0.0538,-0.0451,-0.0496,-0.0398,-0.0393,-0.0449,-0.0389,-0.0387,-0.0305,-0.0295,-0.028,-0.0227,-0.0221,-0.0216,-0.0213,-0.0211,-0.021,0,0,0,0,0,0,0,-0.0712,-0.0698,-0.0562,-0.0552,-0.0542,-0.0531,-0.0516,-0.0477,-0.0389,-0.0444,-0.0436,-0.042,-0.0301,-0.0285,-0.0275,-0.0218,-0.0216,-0.0212,-0.0209,-0.0207,-0.0116,-0.0116,0,0,0,0,0,0,-0.0721,-0.0704,-0.0565,-0.0558,-0.0617,-0.0529,-0.0512,-0.0482,-0.039,-0.0374,-0.0421,-0.0416,-0.0293,-0.0281,-0.027,-0.0226,-0.0211,-0.0207,-0.0204,-0.0115,-0.0116,-0.0116,0,0,0,0,0,0,-0.0726,-0.071,-0.057,-0.0628,-0.0609,-0.0527,-0.0495,-0.0481,-0.0457,-0.0372,-0.0356,-0.0411,-0.0291,-0.0276,-0.0227,-0.0221,-0.0205,-0.0201,-0.0115,-0.0116,-0.0116,-0.0167,0,0,0,0,0,0,-0.0732,-0.0712,-0.0704,-0.0628,-0.0605,-0.0543,-0.0496,-0.0479,-0.0448,-0.044,-0.0358,-0.0343,-0.0289,-0.0234,-0.0222,-0.0215,-0.0197,-0.0115,-0.0115,-0.0116,-0.0165,-0.0169,-0.0173,0,0,0,0,0,-0.0739,-0.073,-0.0704,-0.0687,-0.0593,-0.0543,-0.0532,-0.047,-0.045,-0.0444,-0.0384,-0.0345,-0.0229,-0.0231,-0.0217,-0.0208,-0.0114,-0.0115,-0.0116,-0.0163,-0.0168,-0.0173,0,0,0,0,0,0,-0.0803,-0.0717,-0.0687,-0.0651,-0.0602,-0.0526,-0.0518,-0.048,-0.0431,-0.0425,-0.0348,-0.0328,-0.0284,-0.0246,-0.025,-0.0185,-0.0166,-0.0164,-0.0207,-0.0211,-0.0215,-0.021,-0.0193,0,0,0,0,0,-0.0816,-0.0789,-0.0708,-0.0684,-0.0663,-0.0597,-0.0573,-0.0531,-0.0474,-0.0451,-0.0392,-0.0333,-0.028,-0.0246,-0.02,-0.0166,-0.0118,-0.0153,-0.0157,-0.016,-0.0148,-0.0078,-0.0074,-0.0118,-0.0118,-0.0118,0,0,-0.084,-0.0786,-0.0774,-0.0698,-0.0659,-0.0629,-0.0579,-0.0547,-0.0517,-0.0444,-0.0398,-0.0349,-0.0277,-0.0232,-0.0209,-0.0195,-0.0125,-0.0161,-0.0165,-0.015,-0.0078,-0.0074,-0.007,-0.0119,-0.0119,-0.0119,0,0,-0.0875,-0.0824,-0.0816,-0.0775,-0.0714,-0.0667,-0.0661,-0.0589,-0.0553,-0.0509,-0.0445,-0.039,-0.032,-0.0254,-0.0214,-0.0216,-0.0154,-0.021,-0.0214,-0.0147,-0.0142,-0.0138,-0.0082,-0.0071,-0.0205,-0.0205,-0.0205,0,-0.0903,-0.0865,-0.0811,-0.0789,-0.0751,-0.0687,-0.0666,-0.0628,-0.0549,-0.0509,-0.0502,-0.0373,-0.0324,-0.0237,-0.0237,-0.0222,-0.0178,-0.0201,-0.0151,-0.0145,-0.0139,-0.0083,-0.0071,-0.0207,-0.0207,-0.0207,-0.0206,0,-0.0924,-0.0894,-0.0889,-0.0829,-0.0793,-0.0765,-0.0695,-0.0662,-0.0617,-0.0559,-0.0478,-0.0408,-0.032,-0.0306,-0.027,-0.02,-0.0182,-0.017,-0.0138,-0.0137,-0.0079,-0.0065,-0.0211,-0.021,-0.0209,-0.0209,0,0,-0.0961,-0.0911,-0.0905,-0.0874,-0.0802,-0.0764,-0.0729,-0.065,-0.0602,-0.0546,-0.0474,-0.0394,-0.0346,-0.0299,-0.0244,-0.0189,-0.0125,-0.0167,-0.0163,-0.011,0.002,0.0037,0.0053,-0.0103,-0.0101,-0.0099,0.004,0,-0.0981,-0.0953,-0.0915,-0.0878,-0.0848,-0.0778,-0.0737,-0.0665,-0.06,-0.0526,-0.0443,-0.0366,-0.0345,-0.0299,-0.0242,-0.015,-0.009,-0.0164,0.0011,0.0017,0.0033,0.007,0.0095,0.0222,0.0054,0.0056,0.0058,0,-0.1001,-0.0966,-0.0945,-0.0866,-0.0845,-0.0817,-0.0712,-0.0667,-0.0562,-0.0513,-0.0427,-0.036,-0.0259,-0.0257,-0.0091,-0.0139,-0.0063,-0.0001,0.0006,0.0054,0.0059,0.0198,0.0254,0.0345,0.0079,0.0078,0.0076,0,-0.1035,-0.0978,-0.0955,-0.0929,-0.0845,-0.0814,-0.076,-0.0661,-0.0607,-0.0501,-0.0452,-0.0327,-0.0256,-0.015,-0.0029,-0.0052,0.0145,0.0133,0.0225,0.0227,0.0302,0.0306,0.0473,0.0254,0.0253,0.0253,0.0253,0,-0.1055,-0.1028,-0.0969,-0.0951,-0.0892,-0.0831,-0.0764,-0.0697,-0.0607,-0.0527,-0.0445,-0.0353,-0.0226,-0.0101,-0.0009,0.0157,0.017,0.0244,0.0274,0.0281,0.0282,0.0407,0.0423,0.0258,0.0257,0.0256,0.0255,0,-0.1091,-0.107,-0.102,-0.0938,-0.0915,-0.0867,-0.0779,-0.0731,-0.0645,-0.0545,-0.0513,-0.0359,-0.0192,-0.0064,0.0126,0.0196,0.0405,0.0394,0.0384,0.0411,0.0556,0.0566,0.0757,0.0825,0.0519,0.0521,0.0522,0,-0.1099,-0.1083,-0.1012,-0.0991,-0.0955,-0.089,-0.0853,-0.0763,-0.071,-0.053,-0.0482,-0.0304,-0.0134,0.0133,0.0265,0.0443,0.0498,0.0563,0.0523,0.0591,0.0626,0.0622,0.0665,0.0602,0.0604,0.0606,0.0607,0,-0.1068,-0.1055,-0.1017,-0.0992,-0.096,-0.0913,-0.0851,-0.0815,-0.0692,-0.0564,-0.0361,-0.0204,0.0033,0.0261,0.0447,0.0541,0.0625,0.0597,0.0691,0.0731,0.0719,0.079,0.0469,0.0619,0.0618,0.0617,0.0617,0.0616,-0.1021,-0.1001,-0.0979,-0.0952,-0.0937,-0.0915,-0.0852,-0.0766,-0.0632,-0.0368,-0.0235,0.0118,0.0319,0.0593,0.0652,0.0787,0.0749,0.0851,0.0867,0.0864,0.0909,0.0603,0.0763,0.0763,0.0763,0.0762,0.0762,0,-0.0937,-0.0944,-0.0933,-0.0913,-0.0907,-0.0903,-0.0827,-0.0721,-0.0522,-0.0222,0.0067,0.0559,0.0755,0.0882,0.0995,0.1068,0.1073,0.1112,0.1129,0.1168,0.0937,0.0918,0.1091,0.1091,0.109,0.109,0.109,0.109,-0.0891,-0.0871,-0.0892,-0.0875,-0.0873,-0.0798,-0.0737,-0.0549,-0.031,0.0189,0.0604,0.092,0.1112,0.1216,0.1309,0.1317,0.1414,0.1377,0.1441,0.128,0.1257,0.1235,0.1224,0.1458,0.1458,0.1677,0.1679,0.1681]}],[{"header":{"parameterUnit":"m.s-1","parameterCategory":2,"la1":30.2991,"la2":30.254,"lo1":-89.0895,"lo2":-89.0444,"dy":0.0017,"dx":0.0017,"nx":28,"ny":28,"refTime":"2025-09-04T09:00:00:Z","depth":"2","parameterNumber":2,"parameterNumberName":"U-component_of_CURRENTS"},"data":[0,0,0,0,0,0,0,0,0,0,0,0,0,0,0,0,0,0,0,0,0,0,0,0,0,0,0,0,0,0,0,0,0,0,0,0,0,0,0,0,0,0,0,0,0,0,0,0,0,0,0,0,0,0,0,0,0,0,-0.1673,-0.1674,0,-0.1712,-0.1712,-0.1711,-0.1705,-0.1706,-0.1706,-0.1707,-0.1729,-0.1729,-0.1729,0,0,0,0,0,0,0,0,0,0,0,0,0,-0.1574,-0.1575,-0.1672,-0.1674,-0.1676,-0.1712,-0.1712,-0.1711,-0.1705,-0.1706,-0.1706,-0.1707,-0.1729,-0.1729,-0.1729,0,0,0,0,0,0,0,0,0,0,0,0,0,-0.1604,-0.1575,-0.1672,-0.1686,-0.1689,-0.1713,-0.1712,-0.1711,-0.1705,-0.1706,-0.1707,-0.1707,-0.1728,-0.1729,-0.1729,-0.1716,0,0,-0.173,-0.173,0,0,0,0,0,0,0,0,-0.1602,-0.1606,-0.1683,-0.1686,-0.1689,-0.1716,-0.1686,-0.1716,-0.1705,-0.1686,-0.1707,-0.1708,-0.173,-0.173,-0.1719,-0.1717,-0.1718,-0.173,-0.173,-0.173,-0.173,0,0,0,0,0,0,0,-0.16,-0.1604,-0.1676,-0.1685,-0.1688,-0.1686,-0.1689,-0.1691,-0.1694,-0.1688,-0.169,-0.1714,-0.173,-0.1719,-0.172,-0.1719,-0.173,-0.173,-0.173,-0.173,-0.1767,-0.1768,0,0,0,0,0,0,-0.162,-0.1602,-0.1675,-0.1678,-0.166,-0.1688,-0.1692,-0.1696,-0.1694,-0.1698,-0.1714,-0.1714,-0.1718,-0.1719,-0.172,-0.1756,-0.173,-0.173,-0.173,-0.1766,-0.1767,-0.1768,0,0,0,0,0,0,-0.1618,-0.1625,-0.1673,-0.1652,-0.166,-0.169,-0.1695,-0.1697,-0.1701,-0.1717,-0.1718,-0.172,-0.1718,-0.172,-0.1753,-0.1755,-0.173,-0.173,-0.1765,-0.1766,-0.1768,-0.1795,0,0,0,0,0,0,-0.1614,-0.1623,-0.1616,-0.1653,-0.1662,-0.1707,-0.1695,-0.1697,-0.172,-0.1721,-0.1722,-0.1724,-0.1719,-0.1753,-0.1753,-0.1755,-0.1731,-0.1764,-0.1766,-0.1767,-0.1793,-0.1797,-0.1801,0,0,0,0,0,-0.161,-0.162,-0.1614,-0.1624,-0.1656,-0.1709,-0.1712,-0.1728,-0.172,-0.173,-0.1741,-0.1724,-0.1763,-0.1755,-0.1755,-0.1756,-0.1763,-0.1765,-0.1767,-0.1792,-0.1797,-0.1801,0,0,0,0,0,0,-0.1586,-0.1622,-0.1617,-0.1638,-0.1677,-0.1713,-0.1726,-0.1734,-0.1745,-0.1746,-0.1743,-0.1746,-0.1772,-0.1766,-0.1757,-0.1772,-0.1757,-0.1759,-0.1775,-0.178,-0.1783,-0.1772,-0.1731,0,0,0,0,0,-0.1574,-0.1578,-0.1627,-0.1643,-0.1664,-0.1689,-0.1706,-0.1726,-0.1753,-0.1757,-0.1764,-0.1768,-0.1774,-0.1782,-0.1788,-0.1801,-0.1777,-0.18,-0.1804,-0.1807,-0.1799,-0.1781,-0.1782,-0.1774,-0.1774,-0.1774,0,0,-0.1567,-0.1592,-0.1592,-0.1636,-0.1658,-0.1695,-0.1698,-0.1744,-0.1766,-0.1759,-0.1782,-0.1785,-0.1783,-0.18,-0.1809,-0.1799,-0.1797,-0.181,-0.1812,-0.1802,-0.1783,-0.1783,-0.1784,-0.1776,-0.1775,-0.1775,0,0,-0.1587,-0.1582,-0.1602,-0.1632,-0.1688,-0.1706,-0.1726,-0.1771,-0.178,-0.1818,-0.1808,-0.182,-0.1838,-0.183,-0.1828,-0.1856,-0.1819,-0.1856,-0.1863,-0.1846,-0.1846,-0.1845,-0.1811,-0.1807,-0.1856,-0.1856,-0.1856,0,-0.1579,-0.1606,-0.162,-0.166,-0.1687,-0.1715,-0.1755,-0.1769,-0.1819,-0.1823,-0.1837,-0.1845,-0.1848,-0.1845,-0.1857,-0.1861,-0.1841,-0.1845,-0.1849,-0.1848,-0.1847,-0.1812,-0.1808,-0.1857,-0.1857,-0.1857,-0.1857,0,-0.1626,-0.1639,-0.1663,-0.1703,-0.1732,-0.1776,-0.1813,-0.1831,-0.1848,-0.1859,-0.1875,-0.1882,-0.1881,-0.1884,-0.1882,-0.1871,-0.1855,-0.1857,-0.1834,-0.1849,-0.1812,-0.1806,-0.1859,-0.1859,-0.1858,-0.1858,0,0,-0.162,-0.1681,-0.1686,-0.1698,-0.1758,-0.1787,-0.1823,-0.1855,-0.1862,-0.1894,-0.1898,-0.1911,-0.1901,-0.1898,-0.1888,-0.1876,-0.1855,-0.1865,-0.1864,-0.1824,-0.1802,-0.1721,-0.1708,-0.1859,-0.1858,-0.1858,-0.1776,0,-0.1649,-0.1711,-0.1742,-0.1783,-0.1806,-0.1835,-0.186,-0.1885,-0.1903,-0.191,-0.1905,-0.1909,-0.1909,-0.1906,-0.1896,-0.1869,-0.1844,-0.1876,-0.1799,-0.1796,-0.1716,-0.17,-0.1575,-0.1486,-0.1771,-0.177,-0.1769,0,-0.1676,-0.1707,-0.1758,-0.1794,-0.1811,-0.184,-0.1864,-0.1895,-0.1905,-0.1918,-0.1917,-0.1913,-0.1895,-0.1898,-0.185,-0.1871,-0.1835,-0.1812,-0.1809,-0.1717,-0.1705,-0.1518,-0.1466,-0.176,-0.1761,-0.1762,-0.1762,0,-0.1634,-0.1709,-0.174,-0.1756,-0.1812,-0.1831,-0.1861,-0.1886,-0.1894,-0.1909,-0.1907,-0.1901,-0.1881,-0.1857,-0.1812,-0.1832,-0.1748,-0.1769,-0.1656,-0.1649,-0.1517,-0.1499,-0.172,-0.172,-0.1721,-0.1721,-0.1721,0,-0.1622,-0.1642,-0.172,-0.1724,-0.175,-0.1804,-0.182,-0.1849,-0.1873,-0.186,-0.1895,-0.1867,-0.187,-0.1826,-0.18,-0.1697,-0.1733,-0.1639,-0.1618,-0.1523,-0.1508,-0.1731,-0.1733,-0.1718,-0.1718,-0.1719,-0.172,0,-0.1549,-0.1606,-0.1634,-0.1702,-0.1721,-0.1732,-0.1785,-0.1784,-0.183,-0.1813,-0.1814,-0.1823,-0.1762,-0.1744,-0.1686,-0.1653,-0.1587,-0.1539,-0.1417,-0.1383,-0.1505,-0.151,-0.1409,-0.1406,-0.1403,-0.14,-0.1398,0,-0.1516,-0.1526,-0.1595,-0.1597,-0.1624,-0.1656,-0.1663,-0.1736,-0.1737,-0.1764,-0.1737,-0.1701,-0.1628,-0.1523,-0.1455,-0.1371,-0.1461,-0.123,-0.1245,-0.148,-0.1471,-0.1481,-0.149,-0.1081,-0.1077,-0.1073,-0.107,0,-0.1435,-0.1469,-0.1483,-0.1492,-0.1505,-0.1524,-0.1551,-0.1551,-0.1617,-0.1613,-0.1574,-0.1524,-0.1418,-0.1264,-0.1174,-0.1125,-0.1242,-0.1149,-0.1409,-0.1185,-0.1165,-0.1159,-0.1179,-0.1037,-0.104,-0.1042,-0.1044,-0.1046,-0.1366,-0.1354,-0.1369,-0.1366,-0.1378,-0.1368,-0.1337,-0.1374,-0.1361,-0.1337,-0.1384,-0.1275,-0.1226,-0.1002,-0.0925,-0.0876,-0.097,-0.0951,-0.0965,-0.0982,-0.0964,-0.0941,-0.0766,-0.0767,-0.0769,-0.077,-0.0771,0,-0.1254,-0.1244,-0.1236,-0.1219,-0.1177,-0.1232,-0.1228,-0.1174,-0.1114,-0.1148,-0.111,-0.0941,-0.082,-0.078,-0.0627,-0.0598,-0.0622,-0.0593,-0.063,-0.0661,-0.069,-0.0661,-0.038,-0.0379,-0.0378,-0.0377,0,0,-0.1186,-0.1131,-0.1124,-0.1014,-0.1,-0.0905,-0.0876,-0.0834,-0.0828,-0.0767,-0.0733,-0.0807,-0.0763,-0.0591,-0.0533,-0.0431,-0.0558,-0.0409,-0.0718,-0.0793,-0.0822,-0.088,-0.0866,0,0,0,0,0]},{"header":{"parameterUnit":"m.s-1","parameterCategory":2,"la1":30.2991,"la2":30.254,"lo1":-89.0895,"lo2":-89.0444,"dy":0.0017,"dx":0.0017,"nx":28,"ny":28,"refTime":"2025-09-04T09:00:00:Z","depth":"2","parameterNumber":3,"parameterNumberName":"V-component_of_CURRENTS"},"data":[0,0,0,0,0,0,0,0,0,0,0,0,0,0,0,0,0,0,0,0,0,0,0,0,0,0,0,0,0,0,0,0,0,0,0,0,0,0,0,0,0,0,0,0,0,0,0,0,0,0,0,0,0,0,0,0,0,0,-0.0306,-0.0306,0,-0.0232,-0.0231,-0.023,-0.0187,-0.0187,-0.0187,-0.0187,-0.0098,-0.0096,-0.0093,0,0,0,0,0,0,0,0,0,0,0,0,0,-0.0372,-0.0371,-0.0306,-0.0306,-0.0305,-0.0233,-0.0231,-0.023,-0.0187,-0.0187,-0.0187,-0.0187,-0.0099,-0.0096,-0.0093,0,0,0,0,0,0,0,0,0,0,0,0,0,-0.0323,-0.037,-0.0306,-0.0277,-0.0274,-0.0233,-0.0231,-0.023,-0.0187,-0.0187,-0.0187,-0.0187,-0.01,-0.0096,-0.0093,-0.0068,0,0,-0.0081,-0.008,0,0,0,0,0,0,0,0,-0.0326,-0.032,-0.0282,-0.0279,-0.0275,-0.0221,-0.0222,-0.0176,-0.0187,-0.0217,-0.0187,-0.0187,-0.014,-0.0133,-0.0115,-0.0064,-0.006,-0.0081,-0.0079,-0.0077,-0.0076,0,0,0,0,0,0,0,-0.0329,-0.0323,-0.0274,-0.0281,-0.0277,-0.0254,-0.0247,-0.0212,-0.0176,-0.0214,-0.0212,-0.0208,-0.0137,-0.0119,-0.0112,-0.0059,-0.0081,-0.0078,-0.0076,-0.0074,0.0017,0.0017,0,0,0,0,0,0,-0.0345,-0.0326,-0.0277,-0.0272,-0.0304,-0.0253,-0.0245,-0.0236,-0.0177,-0.0169,-0.0208,-0.0206,-0.0125,-0.0117,-0.0109,-0.0081,-0.0077,-0.0074,-0.0072,0.0017,0.0017,0.0017,0,0,0,0,0,0,-0.0347,-0.0341,-0.028,-0.03,-0.0291,-0.0253,-0.0242,-0.0235,-0.022,-0.0173,-0.0164,-0.0201,-0.0124,-0.0114,-0.0084,-0.0078,-0.0072,-0.0069,0.0017,0.0017,0.0017,-0.0023,0,0,0,0,0,0,-0.0349,-0.0342,-0.0339,-0.0301,-0.0291,-0.0262,-0.0242,-0.0233,-0.0218,-0.0215,-0.0164,-0.0155,-0.0124,-0.0089,-0.008,-0.0072,-0.0066,0.0016,0.0017,0.0017,-0.0022,-0.0024,-0.0025,0,0,0,0,0,-0.0351,-0.0354,-0.0339,-0.0333,-0.0288,-0.0263,-0.0255,-0.0226,-0.0218,-0.0213,-0.018,-0.0157,-0.008,-0.0086,-0.0075,-0.0067,0.0016,0.0017,0.0017,-0.0021,-0.0023,-0.0025,0,0,0,0,0,0,-0.038,-0.0349,-0.0332,-0.0324,-0.0297,-0.0257,-0.0252,-0.0231,-0.0199,-0.02,-0.0154,-0.0143,-0.0114,-0.0085,-0.0094,-0.0039,-0.0028,-0.0025,-0.006,-0.0062,-0.0064,-0.0072,-0.0063,0,0,0,0,0,-0.0385,-0.0377,-0.0343,-0.0335,-0.0327,-0.0289,-0.0276,-0.0257,-0.0227,-0.0213,-0.0176,-0.0137,-0.0101,-0.008,-0.0046,-0.0016,0.0013,-0.0003,-0.0005,-0.0006,-0.0005,0.0038,0.004,0.0019,0.0019,0.0019,0,0,-0.0391,-0.0375,-0.0368,-0.034,-0.0318,-0.0307,-0.0281,-0.0268,-0.0253,-0.0208,-0.0179,-0.0145,-0.0096,-0.0063,-0.0047,-0.0039,0.0015,-0.0006,-0.0008,-0.0005,0.0039,0.0041,0.0043,0.002,0.0019,0.0019,0,0,-0.0412,-0.0389,-0.0394,-0.0376,-0.0353,-0.0327,-0.0327,-0.029,-0.0269,-0.0241,-0.0202,-0.0166,-0.0114,-0.0072,-0.0046,-0.0037,-0.0,-0.0027,-0.0037,0.0004,0.0006,0.0008,0.0045,0.005,-0.0024,-0.0024,-0.0025,0,-0.0422,-0.042,-0.0391,-0.0393,-0.0381,-0.034,-0.0341,-0.031,-0.0266,-0.0245,-0.0241,-0.0153,-0.0116,-0.0061,-0.0059,-0.004,-0.0015,-0.0035,0.0001,0.0004,0.0006,0.0044,0.005,-0.0026,-0.0026,-0.0026,-0.0026,0,-0.045,-0.0443,-0.0447,-0.0429,-0.0411,-0.0407,-0.0366,-0.0342,-0.0315,-0.028,-0.0231,-0.0178,-0.0123,-0.0105,-0.0079,-0.0034,-0.0022,-0.0011,0.0003,0.0006,0.0045,0.0053,-0.0029,-0.0028,-0.0028,-0.0027,0,0,-0.0484,-0.047,-0.047,-0.0466,-0.0432,-0.042,-0.0393,-0.0352,-0.0329,-0.0284,-0.0249,-0.0185,-0.0154,-0.0121,-0.0078,-0.004,0.0001,-0.0021,-0.0018,0.0009,0.0089,0.0103,0.0113,0.0015,0.0016,0.0017,0.0107,0,-0.0513,-0.0532,-0.0509,-0.0506,-0.0508,-0.0458,-0.0432,-0.0387,-0.0343,-0.0297,-0.0234,-0.0188,-0.0159,-0.0134,-0.0091,-0.002,0.002,-0.0025,0.0088,0.0091,0.0099,0.0123,0.0105,0.0184,0.0115,0.0116,0.0117,0,-0.0552,-0.0555,-0.0573,-0.0541,-0.0536,-0.0526,-0.0474,-0.0443,-0.0366,-0.0331,-0.0271,-0.0218,-0.0143,-0.013,-0.0009,-0.004,0.0019,0.0069,0.0074,0.0108,0.012,0.0173,0.0201,0.013,0.0129,0.0128,0.0127,0,-0.0601,-0.0595,-0.0611,-0.0604,-0.0566,-0.0557,-0.0529,-0.046,-0.0426,-0.035,-0.0317,-0.0227,-0.0173,-0.0093,0.0015,0.0004,0.0142,0.0141,0.0212,0.0214,0.0233,0.0234,0.0221,0.0221,0.0221,0.0221,0.022,0,-0.0639,-0.0648,-0.0639,-0.0646,-0.065,-0.0605,-0.0586,-0.0541,-0.0471,-0.042,-0.0341,-0.0276,-0.0162,-0.0064,0.0016,0.0144,0.0148,0.0219,0.0242,0.0218,0.0217,0.0195,0.0191,0.0224,0.0223,0.0223,0.0222,0,-0.0686,-0.0682,-0.0701,-0.0683,-0.0676,-0.0682,-0.063,-0.0606,-0.0535,-0.0465,-0.0441,-0.0306,-0.0173,-0.0057,0.009,0.0155,0.0266,0.0308,0.0269,0.0286,0.0307,0.03,0.0395,0.0396,0.0397,0.0398,0.0399,0,-0.0712,-0.073,-0.0743,-0.0752,-0.0747,-0.0739,-0.0724,-0.0655,-0.0616,-0.0469,-0.0435,-0.029,-0.0165,0.0049,0.0177,0.0321,0.0315,0.0384,0.0361,0.0314,0.0327,0.0318,0.031,0.0372,0.0372,0.0373,0.0373,0,-0.0752,-0.0767,-0.078,-0.0804,-0.0809,-0.0802,-0.0769,-0.0745,-0.0637,-0.0556,-0.0409,-0.0296,-0.008,0.0092,0.0267,0.0343,0.0356,0.0398,0.0379,0.0323,0.0298,0.0308,0.03,0.0377,0.0376,0.0376,0.0376,0.0376,-0.0782,-0.0807,-0.0826,-0.0843,-0.0851,-0.0841,-0.0823,-0.0764,-0.0684,-0.0525,-0.042,-0.0229,-0.0069,0.0191,0.0311,0.0414,0.0414,0.0437,0.0434,0.043,0.0404,0.0382,0.0471,0.0472,0.0472,0.0472,0.0472,0,-0.08,-0.0821,-0.0849,-0.0868,-0.0878,-0.0871,-0.0828,-0.0783,-0.0683,-0.0513,-0.0366,-0.0177,0.0023,0.0187,0.0362,0.0462,0.044,0.0468,0.0424,0.042,0.0417,0.0388,0.0453,0.0453,0.0453,0.0453,0,0,-0.0805,-0.0836,-0.0849,-0.0872,-0.0884,-0.0872,-0.0844,-0.0764,-0.0639,-0.0461,-0.0307,-0.0148,0.0061,0.0167,0.0291,0.039,0.0376,0.0389,0.0397,0.0328,0.0324,0.0394,0.0345,0,0,0,0,0]}],[{"header":{"parameterUnit":"m.s-1","parameterCategory":2,"la1":30.2991,"la2":30.254,"lo1":-89.0895,"lo2":-89.0444,"dy":0.0017,"dx":0.0017,"nx":28,"ny":28,"refTime":"2025-09-04T09:00:00:Z","depth":"4","parameterNumber":2,"parameterNumberName":"U-component_of_CURRENTS"},"data":[0,0,0,0,0,0,0,0,0,0,0,0,0,0,0,0,0,0,0,0,0,0,0,0,0,0,0,0,0,0,0,0,0,0,0,0,0,0,0,0,0,0,0,0,0,0,0,0,0,0,0,0,0,0,0,0,0,0,-0.1036,-0.1037,0,-0.1092,-0.1092,-0.1093,-0.1111,-0.1111,-0.111,-0.111,-0.1172,-0.1174,-0.1176,0,0,0,0,0,0,0,0,0,0,0,0,0,-0.096,-0.0961,-0.1036,-0.1037,-0.1038,-0.1092,-0.1092,-0.1093,-0.1111,-0.1111,-0.111,-0.111,-0.1172,-0.1174,-0.1176,0,0,0,0,0,0,0,0,0,0,0,0,0,-0.1001,-0.0962,-0.1036,-0.1054,-0.1056,-0.1091,-0.1092,-0.1093,-0.1111,-0.1111,-0.111,-0.111,-0.1171,-0.1173,-0.1176,-0.1198,0,0,-0.1184,-0.1186,0,0,0,0,0,0,0,0,-0.0999,-0.1004,-0.1051,-0.1053,-0.1055,-0.1095,-0.1088,-0.1129,-0.1111,-0.1089,-0.111,-0.111,-0.1148,-0.1152,-0.1162,-0.1201,-0.1203,-0.1185,-0.1186,-0.1187,-0.1188,0,0,0,0,0,0,0,-0.0996,-0.1002,-0.1057,-0.1051,-0.1054,-0.1064,-0.1069,-0.1096,-0.1119,-0.1091,-0.1093,-0.11,-0.1149,-0.1159,-0.1164,-0.1204,-0.1185,-0.1187,-0.1189,-0.119,-0.1318,-0.132,0,0,0,0,0,0,-0.0991,-0.0999,-0.1056,-0.1059,-0.1027,-0.1065,-0.1071,-0.1082,-0.1118,-0.1124,-0.11,-0.1101,-0.1155,-0.116,-0.1166,-0.1238,-0.1187,-0.119,-0.1191,-0.1316,-0.1318,-0.132,0,0,0,0,0,0,-0.0989,-0.0995,-0.1054,-0.1031,-0.1039,-0.1067,-0.1079,-0.1083,-0.111,-0.1125,-0.1131,-0.1125,-0.1155,-0.1162,-0.1212,-0.1238,-0.1191,-0.1194,-0.1314,-0.1317,-0.1319,-0.1353,0,0,0,0,0,0,-0.0986,-0.0994,-0.101,-0.1031,-0.104,-0.109,-0.1079,-0.1084,-0.1115,-0.1116,-0.1148,-0.1153,-0.1155,-0.1208,-0.1215,-0.1241,-0.1196,-0.1312,-0.1315,-0.1319,-0.135,-0.1357,-0.1363,0,0,0,0,0,-0.0984,-0.1005,-0.101,-0.1017,-0.1057,-0.1092,-0.1098,-0.1116,-0.1116,-0.1138,-0.1161,-0.1152,-0.1234,-0.1212,-0.1219,-0.1247,-0.131,-0.1314,-0.1318,-0.1347,-0.1356,-0.1363,0,0,0,0,0,0,-0.0982,-0.1009,-0.1015,-0.1045,-0.1073,-0.1095,-0.1119,-0.1129,-0.1164,-0.117,-0.1178,-0.1185,-0.1238,-0.1244,-0.1219,-0.1296,-0.127,-0.1276,-0.129,-0.1298,-0.1304,-0.1288,-0.1198,0,0,0,0,0,-0.0988,-0.1008,-0.1037,-0.1061,-0.1079,-0.1102,-0.1121,-0.1135,-0.1163,-0.1179,-0.1201,-0.1229,-0.1259,-0.1279,-0.1306,-0.135,-0.1325,-0.1374,-0.138,-0.1385,-0.1379,-0.1364,-0.1367,-0.1334,-0.1334,-0.1333,0,0,-0.0994,-0.1011,-0.1024,-0.1062,-0.1085,-0.112,-0.1114,-0.1152,-0.1182,-0.1181,-0.1236,-0.1255,-0.1277,-0.1325,-0.1349,-0.1334,-0.1384,-0.1391,-0.1395,-0.1386,-0.1368,-0.1371,-0.1374,-0.1336,-0.1336,-0.1335,0,0,-0.1013,-0.1034,-0.1059,-0.1087,-0.1127,-0.1144,-0.116,-0.1199,-0.1219,-0.1272,-0.1278,-0.1311,-0.1365,-0.1378,-0.1391,-0.1451,-0.1419,-0.147,-0.1488,-0.1474,-0.1476,-0.1477,-0.1447,-0.1445,-0.1471,-0.1471,-0.1471,0,-0.1022,-0.1057,-0.1074,-0.1109,-0.1138,-0.1158,-0.1199,-0.1224,-0.1274,-0.1292,-0.1297,-0.1364,-0.1385,-0.1424,-0.1449,-0.1463,-0.1444,-0.1454,-0.1479,-0.148,-0.148,-0.1449,-0.1446,-0.1474,-0.1473,-0.1473,-0.1473,0,-0.1058,-0.1096,-0.1117,-0.1164,-0.1196,-0.1238,-0.1272,-0.1305,-0.1331,-0.1349,-0.14,-0.1425,-0.1457,-0.1476,-0.1484,-0.1509,-0.149,-0.1486,-0.145,-0.1485,-0.1451,-0.1447,-0.1477,-0.1476,-0.1475,-0.1475,0,0,-0.1056,-0.113,-0.1139,-0.1173,-0.1233,-0.1261,-0.1311,-0.1358,-0.1382,-0.1424,-0.1449,-0.1505,-0.1505,-0.152,-0.1531,-0.1524,-0.1518,-0.1513,-0.1511,-0.1466,-0.1474,-0.1371,-0.1357,-0.1516,-0.1516,-0.1516,-0.1446,0,-0.1086,-0.1155,-0.1187,-0.1258,-0.1297,-0.1333,-0.1374,-0.1413,-0.1441,-0.1469,-0.1483,-0.1517,-0.1526,-0.1542,-0.1539,-0.1526,-0.1511,-0.1536,-0.1461,-0.1458,-0.1349,-0.135,-0.1516,-0.1443,-0.1443,-0.1442,-0.1441,0,-0.111,-0.1155,-0.1228,-0.1302,-0.1324,-0.1368,-0.1426,-0.1466,-0.1498,-0.1516,-0.1536,-0.1542,-0.1554,-0.1549,-0.1524,-0.154,-0.1511,-0.149,-0.1487,-0.1372,-0.1348,-0.1405,-0.1435,-0.1435,-0.1436,-0.1436,-0.1437,0,-0.1086,-0.1182,-0.124,-0.1269,-0.1353,-0.1392,-0.1438,-0.1482,-0.1504,-0.154,-0.1543,-0.156,-0.1554,-0.1535,-0.1499,-0.1515,-0.1443,-0.1456,-0.133,-0.1323,-0.142,-0.142,-0.1422,-0.1422,-0.1422,-0.1422,-0.1423,0,-0.1088,-0.1139,-0.124,-0.1268,-0.1333,-0.1396,-0.1448,-0.1487,-0.1524,-0.1525,-0.1564,-0.154,-0.155,-0.151,-0.1488,-0.1383,-0.1431,-0.1319,-0.1294,-0.1438,-0.1441,-0.1417,-0.1418,-0.142,-0.142,-0.1421,-0.1421,0,-0.104,-0.111,-0.118,-0.1285,-0.132,-0.1362,-0.1446,-0.1462,-0.1516,-0.151,-0.1518,-0.1518,-0.1455,-0.1441,-0.1387,-0.1343,-0.1276,-0.1227,-0.1365,-0.1351,-0.117,-0.1174,-0.108,-0.1076,-0.1072,-0.1069,-0.1066,0,-0.1019,-0.1055,-0.1172,-0.1201,-0.1253,-0.1327,-0.1357,-0.144,-0.1445,-0.1469,-0.1439,-0.1406,-0.1387,-0.1215,-0.1229,-0.1157,-0.1147,-0.1116,-0.1161,-0.1148,-0.1133,-0.1143,-0.1151,-0.1061,-0.106,-0.1059,-0.1058,0,-0.0976,-0.1028,-0.1074,-0.1131,-0.1182,-0.1227,-0.1282,-0.1279,-0.134,-0.1402,-0.131,-0.126,-0.1173,-0.1119,-0.1063,-0.1024,-0.1145,-0.1078,-0.1087,-0.1129,-0.1123,-0.1115,-0.1127,-0.1045,-0.1047,-0.1048,-0.1049,0,-0.0935,-0.095,-0.1005,-0.1041,-0.1095,-0.1097,-0.1152,-0.1146,-0.1164,-0.1206,-0.1162,-0.1128,-0.114,-0.1045,-0.0997,-0.0944,-0.0938,-0.0928,-0.0944,-0.0958,-0.0952,-0.093,-0.0754,0,0,0,0,0,-0.0885,-0.088,-0.0907,-0.0931,-0.0974,-0.0998,-0.1072,-0.1123,-0.119,-0.1089,-0.1126,-0.104,-0.0951,-0.0938,-0.0853,-0.0946,-0.095,-0.0848,-0.095,-0.0975,-0.099,-0.0995,0,0,0,0,0,0,-0.0844,-0.087,-0.0867,-0.0821,-0.0809,-0.0839,-0.0881,-0.0936,-0.0894,-0.0964,-0.091,-0.0967,-0.0887,-0.0954,-0.0818,-0.0818,-0.0862,-0.0847,-0.0844,-0.0967,-0.098,-0.0992,-0.1002,0,0,0,0,0]},{"header":{"parameterUnit":"m.s-1","parameterCategory":2,"la1":30.2991,"la2":30.254,"lo1":-89.0895,"lo2":-89.0444,"dy":0.0017,"dx":0.0017,"nx":28,"ny":28,"refTime":"2025-09-04T09:00:00:Z","depth":"4","parameterNumber":3,"parameterNumberName":"V-component_of_CURRENTS"},"data":[0,0,0,0,0,0,0,0,0,0,0,0,0,0,0,0,0,0,0,0,0,0,0,0,0,0,0,0,0,0,0,0,0,0,0,0,0,0,0,0,0,0,0,0,0,0,0,0,0,0,0,0,0,0,0,0,0,0,-0.0183,-0.0182,0,-0.0136,-0.0136,-0.0135,-0.0117,-0.0117,-0.0118,-0.0118,-0.0054,-0.0052,-0.005,0,0,0,0,0,0,0,0,0,0,0,0,0,-0.0228,-0.0227,-0.0183,-0.0182,-0.0182,-0.0136,-0.0136,-0.0135,-0.0117,-0.0117,-0.0118,-0.0118,-0.0055,-0.0052,-0.005,0,0,0,0,0,0,0,0,0,0,0,0,0,-0.0197,-0.0227,-0.0183,-0.0168,-0.0166,-0.0136,-0.0136,-0.0135,-0.0117,-0.0117,-0.0118,-0.0118,-0.0055,-0.0053,-0.005,-0.0027,0,0,-0.0041,-0.004,0,0,0,0,0,0,0,0,-0.0199,-0.0195,-0.0171,-0.0169,-0.0167,-0.0133,-0.0128,-0.0098,-0.0117,-0.0135,-0.0118,-0.0118,-0.0079,-0.0074,-0.0064,-0.0024,-0.0021,-0.0041,-0.0039,-0.0038,-0.0037,0,0,0,0,0,0,0,-0.0201,-0.0197,-0.0164,-0.017,-0.0168,-0.0154,-0.015,-0.0122,-0.0105,-0.0134,-0.0132,-0.0128,-0.0078,-0.0067,-0.0063,-0.002,-0.0041,-0.0039,-0.0037,-0.0036,0.005,0.005,0,0,0,0,0,0,-0.0209,-0.0199,-0.0165,-0.0162,-0.0184,-0.0153,-0.0148,-0.0143,-0.0106,-0.0101,-0.0128,-0.0127,-0.0072,-0.0066,-0.006,-0.0035,-0.0038,-0.0035,-0.0034,0.0049,0.005,0.0051,0,0,0,0,0,0,-0.021,-0.0206,-0.0167,-0.018,-0.0174,-0.0152,-0.0146,-0.0142,-0.0136,-0.0102,-0.0096,-0.0126,-0.0072,-0.0064,-0.0037,-0.0032,-0.0034,-0.0032,0.0049,0.005,0.005,0.0019,0,0,0,0,0,0,-0.0211,-0.0207,-0.0208,-0.0181,-0.0174,-0.0155,-0.0146,-0.0141,-0.0133,-0.0132,-0.0099,-0.0093,-0.0071,-0.0041,-0.0034,-0.0028,-0.0029,0.0048,0.0049,0.005,0.0019,0.0018,0.0018,0,0,0,0,0,-0.0213,-0.0216,-0.0209,-0.0205,-0.0176,-0.0155,-0.015,-0.0135,-0.0133,-0.013,-0.0106,-0.0094,-0.0029,-0.0039,-0.0031,-0.0024,0.0047,0.0049,0.005,0.0019,0.0018,0.0018,0,0,0,0,0,0,-0.0235,-0.0213,-0.0205,-0.0201,-0.0182,-0.0153,-0.0151,-0.0138,-0.0117,-0.0119,-0.0087,-0.0079,-0.0054,-0.0031,-0.0043,0.0006,0.0012,0.0015,-0.0015,-0.0015,-0.0015,-0.0027,-0.0027,0,0,0,0,0,-0.024,-0.0237,-0.0212,-0.0208,-0.0202,-0.0177,-0.0168,-0.0157,-0.0134,-0.0126,-0.0099,-0.0069,-0.004,-0.0024,0.0004,0.0031,0.0046,0.0042,0.0042,0.0041,0.0038,0.0066,0.0067,0.0055,0.0055,0.0055,0,0,-0.0246,-0.0235,-0.0233,-0.0212,-0.0199,-0.019,-0.0173,-0.0163,-0.0153,-0.0121,-0.01,-0.0072,-0.0033,-0.0005,0.0009,0.0013,0.0053,0.0042,0.0041,0.0039,0.0068,0.0069,0.007,0.0056,0.0056,0.0056,0,0,-0.026,-0.0249,-0.0253,-0.024,-0.0224,-0.0205,-0.0204,-0.0177,-0.0163,-0.0138,-0.0111,-0.0081,-0.0038,-0.0007,0.0014,0.0029,0.0047,0.0039,0.0029,0.0056,0.0057,0.0058,0.0075,0.0077,0.0041,0.0041,0.0041,0,-0.0268,-0.027,-0.025,-0.0251,-0.0244,-0.0214,-0.0215,-0.0193,-0.0158,-0.0143,-0.0138,-0.0068,-0.0038,0.0004,0.0009,0.0027,0.004,0.0025,0.0053,0.0055,0.0056,0.0074,0.0077,0.0039,0.004,0.004,0.004,0,-0.0286,-0.0287,-0.0289,-0.0279,-0.0266,-0.0263,-0.0231,-0.0214,-0.0194,-0.0168,-0.0128,-0.0084,-0.0043,-0.0025,-0.0004,0.0028,0.0033,0.0045,0.0049,0.0055,0.0074,0.0078,0.0037,0.0038,0.0038,0.0039,0,0,-0.0307,-0.0303,-0.0306,-0.0309,-0.0284,-0.0276,-0.0254,-0.0225,-0.0211,-0.0171,-0.0148,-0.0093,-0.0069,-0.0044,-0.0008,0.0019,0.0041,0.0033,0.0035,0.0039,0.0092,0.0083,0.0087,0.0055,0.0055,0.0056,0.0098,0,-0.0329,-0.0347,-0.0331,-0.0338,-0.0344,-0.0307,-0.0288,-0.0256,-0.0221,-0.0189,-0.0137,-0.0103,-0.0075,-0.0057,-0.0025,0.0027,0.0051,0.0028,0.0095,0.0097,0.008,0.0092,0.0058,0.0101,0.0102,0.0103,0.0103,0,-0.0357,-0.0366,-0.0387,-0.0374,-0.0372,-0.0368,-0.0336,-0.0313,-0.0254,-0.0226,-0.018,-0.0137,-0.0082,-0.0065,0.0017,-0.0001,0.004,0.0076,0.0079,0.0085,0.0096,0.0098,0.0111,0.011,0.011,0.0109,0.0109,0,-0.0397,-0.0402,-0.0424,-0.0422,-0.0402,-0.0401,-0.0384,-0.0333,-0.0309,-0.0252,-0.0228,-0.0159,-0.012,-0.0062,0.0019,0.0016,0.0104,0.0111,0.0142,0.0142,0.0149,0.0147,0.0162,0.0162,0.0162,0.0162,0.0162,0,-0.0426,-0.0444,-0.0452,-0.0464,-0.0481,-0.0448,-0.0445,-0.0412,-0.0359,-0.0324,-0.0257,-0.021,-0.0118,-0.0049,0.0011,0.0089,0.0099,0.014,0.0154,0.0135,0.0131,0.0151,0.0149,0.0163,0.0163,0.0163,0.0163,0,-0.0464,-0.047,-0.05,-0.0502,-0.0505,-0.052,-0.0492,-0.0479,-0.0424,-0.0376,-0.0358,-0.0248,-0.0156,-0.0067,0.0039,0.0081,0.0153,0.0178,0.0145,0.0157,0.0172,0.0169,0.021,0.021,0.021,0.021,0.021,0,-0.0483,-0.0506,-0.0541,-0.0562,-0.0569,-0.058,-0.0578,-0.0526,-0.0498,-0.0389,-0.0364,-0.026,-0.0183,-0.0041,0.0047,0.0152,0.0168,0.0195,0.0188,0.0169,0.0179,0.0175,0.0171,0.021,0.021,0.021,0.021,0,-0.0519,-0.0542,-0.0566,-0.0612,-0.0634,-0.0642,-0.0629,-0.0608,-0.0524,-0.0482,-0.0356,-0.0255,-0.0148,-0.0034,0.0047,0.0125,0.0171,0.0197,0.0197,0.019,0.017,0.0179,0.0175,0.0211,0.0211,0.0211,0.0211,0,-0.0548,-0.0579,-0.0615,-0.0647,-0.068,-0.0682,-0.0671,-0.0612,-0.0569,-0.0435,-0.0394,-0.0256,-0.0168,-0.0047,0.0032,0.0101,0.0117,0.0131,0.0135,0.0135,0.0101,0.0063,0.0084,0,0,0,0,0,-0.0568,-0.0598,-0.0637,-0.0673,-0.0705,-0.0715,-0.0688,-0.0659,-0.0579,-0.0497,-0.0436,-0.0327,-0.0167,-0.0091,-0.0024,0.0011,0.0107,0.0089,0.0118,0.0213,0.0212,0.0183,0,0,0,0,0,0,-0.058,-0.0629,-0.0641,-0.0683,-0.0706,-0.0729,-0.071,-0.0657,-0.0595,-0.0504,-0.0421,-0.0334,-0.0191,-0.0218,-0.0033,-0.0007,0.0016,0.0172,0.0174,0.0213,0.0212,0.0212,0.0182,0,0,0,0,0]}]]